Location: Aldenham
(51.6667°N, 0.3500°W)
Time: 03:09:27
(UTC+00:00)

A-11 Canister half - Pass Details

Date: 17 February 2026
Orbit: 1512 x 1687 km, 47.2° (Epoch: 7 March)

Event Time Altitude Azimuth Distance (km) Brightness Sun altitude
Rises 18:48:00 0° 176° (S) 4,929 11.6 -14.3°
Reaches altitude 10° 18:53:09 10° 155° (SSE) 3,942 10.9 -15.1°
Maximum altitude 18:58:00 15° 125° (SE) 3,567 10.4 -15.8°
Enters shadow 18:58:49 15° 120° (ESE) 3,575 10.4 -15.9°
Drops below altitude 10° 19:02:49 10° 96° (E) 3,920 - -16.6°
Sets 19:07:52 0° 75° (ENE) 4,884 - -17.3°
